Details From CYZS - Coral Harbour
To CYPX - Puvirnituq
Flight Number -
Tags Generated
Created
Modified
Stats Distance 302 nm / 560 km
Max Altitude 0 ft / 0 m
Waypoints 3
Social Downloads 1
Likes 0
Share VATSIM

Download

Looking for another format? Having issues loading an existing format? Contact us
Advertisement - Login to hide

Notes

Generated

Route

CYZS YPX CYPX

ID Type Via Altitude Latitude Longitude Leg Dist Tot Dist Heading (true) Name
O CYZS APT - 0 ft / 0 m 64.19953˚ -83.36607˚ - 0 nm - -
YPX NDB - 0 ft / 0 m 60.04389˚ -77.27944˚ 302 nm 302 nm 143° / 148° -
O CYPX APT - 0 ft / 0 m 60.04389˚ -77.28306˚ 0 nm 302 nm 270° / 270° -

Altitude Profile

Advertisement - Login to hide

Weather


0- 5 10 15 20 25 30 35+ Temperature / ° C

Clouds and Precipitation
Forecast for 2018-05-21 00:00 UTC. Updated an hour ago

Ground ~20,000 ft ~40,000 ft Winds

CYZS

Details ICAO CYZS
Name CORAL HARBOUR
Region Canada
Timezone America/Coral_Harbour (UTC-5.0)
Stats Elevation 210 ft / 64 m (AMSL)
Location 64.193333° -83.359446°
Runways 1
Magnetic Variation 18.721° W

METAR

CYZS 210000Z 36005KT 340V040 15SM FEW040 FEW210 M09/M11 A2975 RMK SC1CI1 SLP084

Decode

TAF

TAF CYZS 201838Z 2019/2107 34010G20KT P6SM -SN OVC020 TEMPO 2019/2103 VRB03KT P6SM NSW BKN050 FM210300 33010G20KT P6SM BKN050 RMK NXT FCST BY 210100Z

Decode

Departure Runways

ID Width Length Bearing (true) Bearing (mag) Surface Threshold Offset Overrun Length
16T 100 ft / 30 m 4,987 ft / 1,520 m 155.02° 173.74° Gravel 0 ft / 0 m 0 ft / 0 m
34T 100 ft / 30 m 4,987 ft / 1,520 m 335.03° 353.75° Gravel 0 ft / 0 m 0 ft / 0 m

CYPX

Details ICAO CYPX (YPX)
Name PUVIRNITUQ
Region Canada
Timezone America/Montreal (UTC-4.0)
Stats Elevation 74 ft / 23 m (AMSL)
Location 60.050418° -77.286945°
Runways 1
Magnetic Variation 19.839° W

METAR

CYPX 210000Z AUTO 05010KT 9SM OVC016 M06/M09 A2970 RMK SLP061

Decode

TAF

TAF CYPX 202338Z 2100/2112 06008KT P6SM -SN OVC015 TEMPO 2100/2112 P6SM NSW OVC025 BECMG 2104/2106 33010KT RMK FCST BASED ON AUTO OBS. NXT FCST BY 210600Z

Decode

Destination Runways

ID Width Length Bearing (true) Bearing (mag) Surface Threshold Offset Overrun Length
01 100 ft / 30 m 4,971 ft / 1,515 m 343.44° 3.28° Gravel 0 ft / 0 m 0 ft / 0 m
19 100 ft / 30 m 4,971 ft / 1,515 m 163.44° 183.28° Gravel 0 ft / 0 m 0 ft / 0 m